Other Surface Observations
Issued by NWS Upton, NY

Home | Current Version | Previous Version | Text Only | Print | Product List | Glossary On
Versions: 1 2 3 4 5 6 7 8 9 10 11 12 13 14 15 16 17 18 19 20 21 22 23 24 25 26 27 28 29 30 31 32 33 34 35 36 37 38 39 40 41 42 43 44 45 46 47 48 49 50
700
SXUS51 KOKX 232057
OSOOKX
New York City Metropolitan Area Weather Roundup
National Weather Service New York NY
400 PM EST FRI FEB 23 2018

CITY           SKY/WX    TMP DP  RH WIND       PRES   REMARKS
Central Park   CLOUDY    39  37  92 VRB6      30.42R FOG     WCI  35
LaGuardia Arpt LGT RAIN  38  36  92 NE8       30.40F VSB 1/2 WCI  32
Kennedy Intl   CLOUDY    39  38  96 E9        30.40F FOG     WCI  33
Newark Liberty DRIZZLE   40  38  93 E7        30.40F FOG
Teterboro Arpt LGT RAIN  39  37  92 E5        30.39F FOG
Bronx Bot Gard   N/A     36  36 100 E5        30.40F WCI  32
Bronx Lehman C   N/A     36  36 100 E7          N/A  WCI  30
Queens College   N/A     39  37  93 SE8         N/A  WCI  34
Breezy Point     N/A     37 N/A N/A E12         N/A  WCI  30
Brooklyn Coll    N/A     39  37  93 E9          N/A  WCI  33
Staten Island    N/A     39  37  93 E5          N/A

>>>>>>>>>>>>>>>>>>>>>>>>>>>>>>>>> KEY <<<<<<<<<<<<<<<<<<<<<<<<<<<<<<<
> SKY/WX - Sky Condition/Present    : R : WCI - Wind Chill Index    <
>          Weather                  : E : VSB - Visibility in Miles <
> TMP    - Temperature in Deg F     : M : HX  - Heat Index          <
> DP     - Dew Point Temperature    : A : TC  - Temperature in      <
> RH     - Relative Humidity        : R :       Celsius             <
> WIND   - Direction/Speed (mph)    : K : VRB - Variable Wind Dir   <
> PRES   - Pressure (in Hg)         : S :                           <
>>>>>>>>>>>>>>>>>>>>>>>>>>>>>>>>> KEY <<<<<<<<<<<<<<<<<<<<<<<<<<<<<<<




USA.gov is the U.S. government's official web portal to all federal, state and local government web resources and services.